Location: Unspecified
(0.0000°N, 0.0000°E)
Time: 09:41:41
(UTC+00:00)

Vanguard 1 - All Passes

Search period start: 22 September 2017 00:00
Search period end: 02 October 2017 00:00
Orbit: 651 x 3832 km, 34.2° (Epoch: 21 September)

Date Brightness Start Highest point End Pass type
(mag) Time Alt. Az. Time Alt. Az. Time Alt. Az.
22 Sep - 00:14:38 10° SSW 00:26:31 23° SSE 00:42:08 10° ESE visible
22 Sep - 02:34:52 10° SW 02:54:44 59° SE 03:17:13 10° ENE visible
22 Sep - 04:59:27 10° WSW 05:22:33 67° NW 05:42:07 10° NE visible
22 Sep - 07:33:15 10° W 07:49:56 26° NW 08:02:14 10° NNE daylight
22 Sep - 15:04:18 10° NNW 15:08:38 28° NNE 15:12:28 10° E daylight
22 Sep - 17:25:12 10° W 17:28:49 24° SSW 17:33:08 10° SSE daylight
23 Sep - 00:35:09 10° SSW 00:48:53 30° SE 01:07:12 10° E visible
23 Sep - 02:55:56 10° SW 03:16:33 72° SE 03:39:22 10° ENE visible
23 Sep - 05:21:50 10° WSW 05:44:21 54° NW 06:03:05 10° NE visible
23 Sep - 07:58:47 10° WNW 08:12:19 20° NNW 08:22:37 10° NNE daylight
23 Sep - 15:24:56 10° NW 15:29:46 55° NE 15:34:08 10° ESE daylight
23 Sep - 17:47:53 10° WSW 17:50:15 14° SSW 17:52:54 10° S daylight
23 Sep - 22:39:39 10° S 22:43:02 11° SSE 22:46:49 10° SE night (unlit)
24 Sep - 00:55:44 10° SSW 01:10:57 38° SE 01:31:23 10° E visible
24 Sep - 03:17:11 10° SW 03:38:21 86° SE 04:01:07 10° NE visible
24 Sep - 05:44:45 10° WSW 06:06:17 44° NW 06:23:55 10° NNE daylight
24 Sep - 08:25:11 10° NW 08:35:03 15° NNW 08:42:54 10° N daylight
24 Sep - 13:26:47 10° N 13:29:44 13° NNE 13:32:16 10° NE daylight
24 Sep - 15:45:59 10° WNW 15:50:47 74° SW 15:55:17 10° SE daylight
24 Sep - 22:58:35 10° S 23:05:41 15° SSE 23:14:42 10° ESE visible
25 Sep - 01:16:24 10° SSW 01:32:47 48° SE 01:54:48 10° ENE visible
25 Sep - 03:38:41 10° WSW 04:00:08 79° NW 04:22:35 10° NE visible
25 Sep - 06:08:21 10° W 06:28:26 35° NW 06:44:41 10° NNE daylight
25 Sep - 08:52:16 10° NW 08:58:04 12° NNW 09:03:01 10° N daylight
25 Sep - 13:46:33 10° NNW 13:51:22 22° NNE 13:55:06 10° ENE daylight
25 Sep - 16:07:30 10° WNW 16:11:48 36° SW 16:16:01 10° SSE daylight
25 Sep - 23:18:27 10° S 23:28:02 20° SE 23:41:04 10° ESE visible
26 Sep - 01:37:12 10° SW 01:54:28 59° SE 02:17:36 10° ENE visible
26 Sep - 04:00:31 10° WSW 04:22:00 66° NW 04:43:51 10° NE visible
26 Sep - 06:32:42 10° W 06:50:51 28° NNW 07:05:25 10° NNE daylight
26 Sep - 09:20:52 10° NNW 09:21:15 10° NNW 09:21:38 10° NNW daylight
26 Sep - 14:07:02 10° NW 14:12:47 36° NNE 14:17:02 10° E daylight
26 Sep - 16:29:38 10° W 16:32:54 19° SW 16:36:13 10° SSE daylight
26 Sep - 23:38:38 10° SSW 23:50:02 27° SE 00:06:22 10° E visible
27 Sep - 01:58:08 10° SW 02:16:07 73° SE 02:39:52 10° ENE visible
27 Sep - 04:22:44 10° WSW 04:43:59 54° NW 05:04:56 10° NE visible
27 Sep - 06:57:53 10° WNW 07:13:37 22° NNW 07:26:12 10° NNE daylight
27 Sep - 12:07:34 10° NNW 12:11:39 14° NNE 12:14:56 10° NE daylight
27 Sep - 14:27:56 10° NW 14:34:00 67° NE 14:38:26 10° ESE daylight
27 Sep - 23:58:59 10° SSW 00:11:46 36° SE 00:30:45 10° E visible
28 Sep - 02:19:17 10° SW 02:37:48 88° SE 03:01:46 10° NE visible
28 Sep - 04:45:29 10° W 05:06:10 44° NW 05:25:56 10° NNE visible
28 Sep - 07:23:47 10° WNW 07:36:43 18° NNW 07:47:07 10° NNE daylight
28 Sep - 12:27:34 10° NNW 12:33:37 20° NNE 12:37:57 10° ENE daylight
28 Sep - 14:49:13 10° WNW 14:55:01 65° SW 14:59:25 10° SE daylight
28 Sep - 22:04:09 10° SSE 22:08:04 12° SSE 22:12:38 10° SE night (unlit)
29 Sep - 00:19:30 10° SSW 00:33:18 46° SE 00:54:18 10° ENE visible
29 Sep - 02:40:41 10° WSW 02:59:35 78° NW 03:23:21 10° NE visible
29 Sep - 05:08:50 10° W 05:28:36 35° NNW 05:46:54 10° NNE visible
29 Sep - 07:49:56 10° NW 08:00:04 15° NNW 08:08:22 10° NNE daylight
29 Sep - 10:26:18 10° NNW 10:30:22 12° N 10:33:49 10° NNE daylight
29 Sep - 12:48:04 10° NNW 12:55:20 30° NNE 13:00:08 10° E daylight
29 Sep - 15:10:59 10° WNW 15:15:57 33° SW 15:19:59 10° SSE daylight
29 Sep - 22:22:52 10° S 22:30:05 17° SE 22:39:49 10° ESE night (unlit)
30 Sep - 00:40:10 10° SW 00:54:45 59° SE 01:17:13 10° ENE visible
30 Sep - 03:02:23 10° WSW 03:21:30 64° NW 03:44:43 10° NE visible
30 Sep - 05:32:54 10° W 05:51:21 29° NNW 06:07:54 10° NNE daylight
30 Sep - 08:15:31 10° NW 08:23:35 13° N 08:30:15 10° NNE daylight
30 Sep - 10:46:35 10° NNW 10:52:56 15° NNE 10:57:44 10° NE daylight
30 Sep - 13:08:55 10° NW 13:16:49 47° NNE 13:21:46 10° ESE daylight
30 Sep - 15:33:27 10° W 15:36:54 18° SW 15:39:58 10° S daylight
30 Sep - 22:42:37 10° SSW 22:51:46 24° SE 23:05:18 10° E visible
01 Oct - 01:01:01 10° SW 01:16:12 74° SE 01:39:36 10° ENE visible
01 Oct - 03:24:29 10° WSW 03:43:37 52° NW 04:05:57 10° NE visible
01 Oct - 05:57:42 10° WNW 06:14:27 23° NNW 06:29:04 10° NNE daylight
01 Oct - 08:39:41 10° NNW 08:47:03 13° N 08:53:05 10° NNE daylight
01 Oct - 11:07:08 10° NNW 11:15:14 20° NNE 11:20:47 10° ENE daylight
01 Oct - 13:30:07 10° NW 13:38:03 79° NE 13:42:59 10° ESE daylight
01 Oct - 23:02:46 10° SSW 23:13:12 33° SE 23:29:44 10° E visible
